Location: Buchloe
(48.0161°N, 10.7316°E)
Time: 19:58:48
(UTC+01:00)

ISS - Pass Details

Date: 31 October 2021
Orbit: 417 x 423 km, 51.6° (Epoch: 29 November)

Event Time Altitude Azimuth Distance (km) Brightness Sun altitude
Exits shadow 05:20:33 37° 321° (NW) 669 -3.1 -17.2°
Maximum altitude 05:21:14 43° 356° (N) 600 -3.1 -17.0°
Drops below altitude 10° 05:24:29 10° 70° (ENE) 1,501 0.1 -16.5°
Sets 05:26:45 0° 78° (ENE) 2,405 1.6 -16.1°
